Location: Burbank
(38.7788°N, 114.0429°W)
Time: 23:02:30
(UTC+00:00)

S-56A Canister/Altair - Pass Details

Date: 16 May 2026
Orbit: 633 x 2484 km, 38.9° (Epoch: 1 June)

Event Time Altitude Azimuth Distance (km) Brightness Sun altitude
Rises 09:53:46 0° 275° (W) 3,295 - -23.3°
Reaches altitude 10° 09:56:27 10° 260° (W) 2,549 - -23.0°
Maximum altitude 10:01:05 23° 209° (SSW) 2,119 - -22.4°
Exits shadow 10:06:20 12° 165° (SSE) 3,191 10.3 -21.8°
Drops below altitude 10° 10:07:09 10° 162° (SSE) 3,428 10.5 -21.7°
Sets 10:11:29 0° 149° (SSE) 4,769 11.4 -21.2°
